sat.trackr.live / text

‹ back to catalog

STARLINK-37590

NORAD 69838 · 2026-154V

PAYLOAD ACTIVE UNKNOWN

§ Identity

Operator
Country
US
Launch date
2026-07-05
Launch site
AFETR
Launch vehicle
Mass (kg)
RCS (m²)

Purposes: comms

External: N2YO · Heavens-Above · Gunter

§ Orbital elements

Epoch: 2026-09-20T04:26:20.651136Z

Period
93.85 min
Inclination
53.1584°
Eccentricity
0.0001194
Mean motion
15.34410547 rev/d
Perigee alt
461.9 km
Apogee alt
463.5 km
Semi-major
6,840.8 km
B*
6.0462e-4
RAAN
332.9216°
Arg perigee
76.3668°
Mean anomaly
283.7467°
Rev number
1,319

§ Raw data

STARLINK-375901 69838U 26154V   26263.18496124  .00020113  00000+0  60462-3 0  99932 69838  53.1584 332.9216 0001194  76.3668 283.7467 15.34410547 13194

JSON: /api/v1/satellites/69838 · /tle

For live sub-satellite position, see the globe view (requires WebGL).

§ Visibility from observer

Set your observer location to see the next 7 days of passes ≥ 10°. The values pass through the URL so the page stays shareable.

No JS? Fill the form by hand. The geolocation button needs JavaScript.